Total_Precipitation_Accumulation
1.72 1.76 1.80 1.90 1.96 2.02 2.06 2.03 2.02 2.02 2.04 2.04 2.13 2.21 2.24 2.26 2.46 2.67 2.57 2.82 2.96 3.01 2.80 2.78 2.75 2.81 2.84 2.70 2.82 2.89 2.98 3.35 3.35 2.66 2.49 2.55 2.66 2.68 2.74 2.60 2.46 2.46 2.26
1.74 1.87 1.90 2.02 2.07 2.01 2.05 2.24 2.24 2.19 2.16 2.16 2.25 2.35 2.30 2.32 2.49 2.50 2.36 2.46 2.68 2.91 3.13 3.28 3.04 3.08 3.10 2.97 2.98 2.95 3.02 3.30 3.33 3.08 2.83 2.78 2.85 2.79 2.80 2.62 2.21 2.10 2.19
1.56 1.72 1.95 2.03 2.08 2.25 2.43 2.59 2.62 2.51 2.45 2.45 2.54 2.47 2.49 2.55 2.53 2.42 2.44 2.49 2.57 2.64 2.92 3.20 3.24 3.45 3.17 3.18 3.12 3.00 3.02 3.04 3.24 3.06 2.82 2.97 2.96 2.91 2.86 2.47 2.28 2.36 2.16
1.66 1.88 2.08 2.31 2.47 2.62 2.63 2.73 2.73 2.69 2.68 2.68 2.69 2.63 2.58 2.63 2.65 2.63 2.62 2.57 2.60 2.56 2.64 2.79 2.94 3.24 3.23 3.33 3.16 3.16 3.27 3.34 3.46 3.31 3.08 3.14 3.25 3.26 3.16 2.77 2.62 2.52 2.36
1.95 2.08 2.15 2.27 2.46 2.73 2.96 2.96 2.89 2.81 2.72 2.91 2.90 2.82 2.82 2.80 2.57 2.73 2.96 2.90 2.95 2.71 2.61 2.58 2.59 2.86 2.96 3.04 2.77 2.97 3.30 3.37 3.44 3.36 3.21 3.21 3.20 3.37 3.10 2.94 2.79 2.77 2.66
2.42 2.55 2.69 2.79 2.91 3.05 3.15 3.21 3.27 3.23 3.16 3.11 3.01 3.06 3.02 2.73 2.85 2.93 2.86 2.90 3.09 3.05 2.88 2.82 2.68 2.61 2.63 2.69 2.71 2.81 2.98 2.99 3.07 3.21 3.12 3.08 3.10 3.25 3.43 3.31 3.15 3.01 2.74
2.59 2.70 2.81 2.92 3.10 3.26 3.33 3.40 3.27 3.24 3.21 3.12 3.09 3.14 3.05 3.06 3.02 2.79 2.66 2.67 2.77 2.85 2.90 2.85 2.52 2.36 2.62 2.51 2.67 2.71 2.52 2.47 2.50 2.67 2.67 2.66 3.13 3.47 3.82 3.47 3.30 3.13 2.83
2.77 2.86 2.93 2.98 3.07 3.27 3.48 3.41 3.26 3.24 3.20 3.17 3.11 3.00 2.93 2.82 2.89 2.64 2.64 2.52 2.48 2.44 2.57 2.67 2.61 2.47 2.50 2.65 2.56 2.29 2.07 2.06 2.12 2.04 2.04 2.29 2.76 3.39 3.74 3.73 3.75 3.51 3.14
2.50 2.69 2.70 2.86 3.05 3.15 3.18 3.22 3.32 3.31 3.12 2.97 2.86 2.85 2.82 2.86 3.10 2.81 2.68 2.45 2.43 2.27 2.30 2.31 2.33 2.19 2.36 2.52 2.39 2.14 1.94 1.83 1.89 1.92 1.89 2.11 2.40 2.77 3.22 3.47 3.40 3.28 2.86
2.44 2.65 2.83 2.98 3.15 3.19 3.21 3.36 3.44 3.42 3.38 3.35 3.22 3.17 3.08 3.03 3.24 2.95 2.77 2.48 2.43 2.37 2.40 2.38 2.43 2.20 2.14 2.11 1.99 1.99 1.79 1.69 1.83 1.82 1.77 1.81 1.93 2.25 2.75 2.84 2.93 3.08 2.80
2.50 2.60 2.74 2.94 3.18 3.44 3.63 3.56 3.58 3.57 3.48 3.32 3.21 3.07 3.05 3.05 3.04 2.82 2.66 2.30 2.20 2.28 2.15 2.04 2.08 2.10 1.88 1.71 1.68 1.65 1.61 1.73 1.83 1.78 1.68 1.67 1.81 2.00 2.18 2.45 2.72 2.80 2.66
2.65 2.75 2.82 3.03 3.11 3.26 3.54 3.57 3.51 3.51 3.42 3.34 3.35 3.34 3.25 3.08 2.78 2.53 2.41 2.25 2.22 2.17 2.17 2.15 2.17 2.18 1.91 1.75 1.58 1.44 1.54 1.58 1.62 1.72 1.63 1.52 1.55 1.68 1.95 2.27 2.60 2.73 2.66
2.63 2.80 3.00 3.11 3.18 3.32 3.49 3.56 3.56 3.49 3.34 3.22 3.14 2.97 2.95 2.96 2.86 2.61 2.33 2.14 2.10 1.94 2.09 2.43 2.45 2.36 2.13 1.83 1.73 1.75 1.71 1.58 1.60 1.60 1.50 1.42 1.49 1.66 1.96 2.32 2.59 2.80 2.77
2.59 2.67 2.84 2.99 3.12 3.29 3.32 3.19 3.05 2.92 2.86 2.85 2.71 2.61 2.63 2.69 2.56 2.47 2.29 2.18 2.17 2.03 2.04 2.32 2.50 2.48 2.33 2.08 1.97 1.90 1.70 1.63 1.71 1.68 1.69 1.73 1.86 2.00 2.14 2.28 2.53 2.70 2.77
2.62 2.69 2.70 2.70 2.78 2.96 3.03 2.99 2.85 2.67 2.53 2.50 2.40 2.43 2.44 2.38 2.41 2.46 2.28 2.13 2.10 2.14 2.22 2.38 2.53 2.63 2.65 2.56 2.45 2.37 2.26 2.11 1.94 1.89 1.97 1.98 2.04 2.12 2.16 2.32 2.59 2.68 2.62
2.72 2.58 2.50 2.42 2.40 2.49 2.52 2.55 2.67 2.54 2.54 2.40 2.28 2.21 2.14 2.18 2.24 2.20 2.08 1.99 2.00 2.14 2.17 2.24 2.48 2.68 2.76 2.84 2.88 2.77 2.55 2.36 2.19 2.19 2.17 2.18 2.21 2.20 2.23 2.39 2.61 2.69 2.55
2.67 2.49 2.38 2.30 2.29 2.25 2.24 2.28 2.41 2.48 2.43 2.33 2.30 2.15 1.99 2.03 2.01 1.97 1.94 1.89 1.93 2.02 1.98 2.08 2.21 2.34 2.54 2.76 2.84 2.80 2.58 2.46 2.49 2.49 2.43 2.44 2.49 2.45 2.41 2.49 2.68 2.79 2.74
2.52 2.56 2.43 2.29 2.31 2.34 2.34 2.31 2.32 2.36 2.34 2.24 2.24 2.20 1.94 1.84 1.82 1.78 1.77 1.69 1.58 1.63 1.68 1.85 2.06 2.22 2.39 2.66 2.83 2.85 2.77 2.70 2.71 2.78 2.78 2.74 2.75 2.63 2.49 2.40 2.55 2.68 2.72
2.41 2.45 2.48 2.45 2.41 2.46 2.46 2.35 2.26 2.22 2.20 2.10 2.01 2.06 2.03 1.86 1.76 1.74 1.71 1.52 1.44 1.46 1.56 1.60 1.70 1.92 2.16 2.42 2.70 2.87 2.85 2.75 2.70 2.76 2.78 2.75 2.80 2.77 2.58 2.42 2.46 2.68 2.72
2.38 2.53 2.44 2.44 2.41 2.37 2.39 2.38 2.34 2.34 2.26 2.16 2.06 2.02 1.98 1.83 1.68 1.78 1.84 1.78 1.67 1.62 1.62 1.63 1.72 1.90 2.11 2.37 2.58 2.69 2.74 2.74 2.69 2.66 2.60 2.55 2.58 2.59 2.45 2.38 2.37 2.45 2.48
2.20 2.31 2.36 2.14 2.15 2.27 2.26 2.29 2.32 2.36 2.33 2.23 2.10 2.07 1.96 1.69 1.73 1.84 1.96 2.00 1.91 1.80 1.74 1.74 1.77 1.86 2.04 2.26 2.43 2.58 2.64 2.67 2.69 2.69 2.65 2.55 2.53 2.54 2.48 2.43 2.42 2.44 2.46
2.19 2.07 2.03 2.03 2.16 2.25 2.33 2.35 2.33 2.26 2.23 2.21 2.16 2.13 2.07 1.77 1.81 1.88 1.93 2.02 2.05 2.02 1.96 1.97 1.97 1.97 2.04 2.20 2.37 2.50 2.54 2.54 2.58 2.64 2.68 2.66 2.66 2.65 2.70 2.71 2.66 2.61 2.60
2.03 2.00 1.94 1.96 2.12 2.29 2.35 2.34 2.34 2.29 2.25 2.26 2.23 2.15 2.08 1.97 1.97 2.06 2.12 2.14 2.14 2.10 2.05 2.04 2.00 1.99 2.01 2.04 2.13 2.29 2.39 2.39 2.38 2.47 2.58 2.54 2.49 2.50 2.56 2.59 2.60 2.64 2.61
1.81 1.92 1.95 1.92 1.99 2.05 2.08 2.09 2.08 2.04 2.05 2.06 2.10 2.15 2.15 2.13 2.16 2.22 2.18 2.14 2.05 1.98 1.98 1.95 1.90 1.87 1.90 1.96 1.98 1.97 2.04 2.15 2.15 2.19 2.30 2.37 2.33 2.31 2.37 2.40 2.49 2.60 2.71
1.66 1.82 1.91 1.88 1.85 1.89 1.87 1.79 1.78 1.83 1.94 2.04 2.08 2.10 2.11 2.11 2.09 2.05 1.96 1.86 1.79 1.83 1.86 1.84 1.80 1.71 1.67 1.68 1.72 1.76 1.93 2.00 2.01 2.00 1.99 2.09 2.14 2.16 2.19 2.26 2.37 2.53 2.71
1.66 1.76 1.79 1.79 1.78 1.82 1.87 1.84 1.78 1.81 1.91 1.94 1.96 1.96 1.97 1.95 1.93 1.87 1.79 1.73 1.71 1.71 1.77 1.81 1.75 1.61 1.56 1.55 1.56 1.62 1.64 1.60 1.68 1.83 1.82 1.86 2.02 2.12 2.13 2.16 2.21 2.34 2.47